Anderson, SC

8:07 AM EDT on March 23, 2017 (GMT -0400)
Anderson Regional

Weather History for KAND - January, 2014

Change the Weather History Date:

Tuesday, January 28, 2014

  Actual Average Record
Temperature  
Mean Temperature 32 °F -  
Max Temperature 39 °F 54 °F 76 °F (1975)
Min Temperature 24 °F 31 °F 8 °F (1986)
Degree Days  
Heating Degree Days 34    
Moisture  
Dew Point 18 °F    
Average Humidity 68    
Maximum Humidity 93    
Minimum Humidity 26    
Precipitation  
Precipitation 0.04 in - - ()
Sea Level Pressure  
Sea Level Pressure 30.16 in    
Wind  
Wind Speed 7 mph (NE)    
Max Wind Speed 15 mph    
Max Gust Speed 21 mph    
Visibility 6 miles    
Events Snow    
Averages and records for this station are not official NWS values.
T = Trace of Precipitation, MM = Missing Value Source: NWS Daily Summary

Daily Weather History Graph

Daily Weather History Graph

Search for Another Location

Airport or City:

Trip Planner

Search our weather history database for the weather conditions in past years. The results will help you decide how hot, cold, wet, or windy it might be!

Date:

Astronomy

Jan. 28, 2014 Rise Set
Actual Time 7:31 AM EST 5:56 PM EST
Civil Twilight 7:04 AM EST 6:23 PM EST
Nautical Twilight 6:34 AM EST 6:53 PM EST
Astronomical Twilight 6:04 AM EST 7:23 PM EST
Moon 5:10 AM EST (1/28) 3:46 PM EST (1/28)
Length of Visible Light 11h 18m
Length of Day
10h 25m
Waning Crescent, 7% of the Moon is Illuminated
Jan 28
Waning Crescent
Jan 30
New
Feb 6
First Quarter
Feb 14
Full
Feb 22
Last Quarter

Hourly Weather History & Observations

Time (EST) Temp. Windchill Dew Point Humidity Pressure Visibility Wind Dir Wind Speed Gust Speed Precip Events Conditions
12:56 AM 39.9 °F - 21.9 °F 49% 30.02 in 10.0 mi Calm Calm - N/A   Clear
1:56 AM 37.9 °F 32.1 °F 19.9 °F 48% 30.05 in 10.0 mi ENE 8.1 mph - N/A   Clear
2:56 AM 37.0 °F 33.3 °F 16.0 °F 42% 30.07 in 10.0 mi NE 4.6 mph - N/A   Clear
3:56 AM 35.1 °F 29.3 °F 12.0 °F 39% 30.08 in 10.0 mi ENE 6.9 mph - N/A   Clear
4:56 AM 34.0 °F 24.6 °F 9.0 °F 35% 30.09 in 10.0 mi NE 13.8 mph - N/A   Clear
5:56 AM 33.1 °F 24.4 °F 7.0 °F 34% 30.12 in 10.0 mi ENE 11.5 mph - N/A   Clear
6:56 AM 33.1 °F 25.5 °F 7.0 °F 34% 30.14 in 10.0 mi NE 9.2 mph 19.6 mph N/A   Overcast
7:56 AM 32.0 °F 24.2 °F 6.1 °F 34% 30.17 in 10.0 mi ENE 9.2 mph 20.7 mph N/A   Overcast
8:56 AM 34.0 °F 24.2 °F 7.0 °F 32% 30.18 in 10.0 mi East 15.0 mph - N/A   Overcast
9:56 AM 34.0 °F 25.5 °F 6.1 °F 31% 30.22 in 10.0 mi ENE 11.5 mph - N/A   Overcast
10:56 AM 34.0 °F 25.5 °F 1.9 °F 26% 30.24 in 10.0 mi East 11.5 mph - N/A   Overcast
11:56 AM 34.0 °F 25.0 °F 1.9 °F 26% 30.22 in 10.0 mi East 12.7 mph - N/A   Overcast
12:56 PM 33.1 °F 24.4 °F 7.0 °F 34% 30.19 in 10.0 mi ENE 11.5 mph - N/A   Overcast
1:56 PM 30.0 °F 21.7 °F 16.0 °F 56% 30.19 in 9.0 mi East 9.2 mph - 0.00 in Snow Light Snow
2:53 PM 28.4 °F 21.2 °F 21.2 °F 74% 30.17 in 1.8 mi ENE 6.9 mph - 0.00 in Snow Light Snow
2:54 PM 28.0 °F 20.0 °F 21.0 °F 75% 30.19 in 1.8 mi ENE 8.1 mph - 0.00 in Snow Light Snow
3:05 PM 26.6 °F 18.2 °F 21.2 °F 80% 30.16 in 1.2 mi ENE 8.1 mph - 0.00 in Snow Light Snow
3:41 PM 26.6 °F 20.0 °F 23.0 °F 86% 30.16 in 0.8 mi NE 5.8 mph - 0.00 in Snow Light Snow
3:56 PM 26.1 °F 17.6 °F 23.0 °F 88% 30.18 in 0.8 mi NE 8.1 mph - 0.01 in Snow Light Snow
4:16 PM 26.6 °F 19.1 °F 24.8 °F 93% 30.16 in 1.0 mi NE 6.9 mph - 0.00 in Snow Light Snow
4:48 PM 26.6 °F 20.0 °F 24.8 °F 93% 30.16 in 0.8 mi NE 5.8 mph - 0.01 in Snow Light Snow
4:56 PM 26.1 °F 17.6 °F 23.0 °F 88% 30.18 in 0.8 mi NE 8.1 mph - 0.02 in Snow Light Snow
5:06 PM 26.6 °F 17.5 °F 23.0 °F 86% 30.15 in 1.0 mi ENE 9.2 mph - 0.00 in Snow Light Snow
5:21 PM 26.6 °F 19.1 °F 23.0 °F 86% 30.15 in 1.2 mi NE 6.9 mph - 0.00 in Snow Light Snow
5:27 PM 26.6 °F 20.0 °F 23.0 °F 86% 30.15 in 1.0 mi NE 5.8 mph - 0.00 in Snow Light Snow
5:43 PM 26.6 °F 19.1 °F 23.0 °F 86% 30.16 in 1.2 mi NE 6.9 mph - 0.00 in Snow Light Snow
5:56 PM 26.1 °F 20.5 °F 23.0 °F 88% 30.17 in 1.5 mi NE 4.6 mph - 0.01 in Snow Light Snow
6:00 PM 26.6 °F 19.1 °F 23.0 °F 86% 30.15 in 2.0 mi NE 6.9 mph - 0.00 in Snow Light Snow
6:09 PM 26.6 °F 20.0 °F 23.0 °F 86% 30.15 in 3.0 mi NNE 5.8 mph - 0.00 in Snow Light Snow
6:18 PM 24.8 °F 16.9 °F 23.0 °F 93% 30.14 in 3.0 mi NE 6.9 mph - 0.00 in Snow Light Snow
6:56 PM 25.0 °F 18.1 °F 23.0 °F 92% 30.17 in 4.0 mi ENE 5.8 mph - 0.00 in Snow Light Snow
7:36 PM 24.8 °F 16.1 °F 21.2 °F 86% 30.17 in 5.0 mi NNE 8.1 mph - 0.00 in Snow Light Snow
7:56 PM 25.0 °F 16.3 °F 21.0 °F 85% 30.20 in 3.0 mi NE 8.1 mph - 0.00 in Snow Light Snow
8:03 PM 24.8 °F 16.9 °F 21.2 °F 86% 30.18 in 2.5 mi NE 6.9 mph - 0.00 in Snow Light Snow
8:23 PM 24.8 °F 19.1 °F 21.2 °F 86% 30.19 in 3.0 mi NNE 4.6 mph - 0.00 in Snow Light Snow
8:56 PM 24.1 °F 16.0 °F 21.0 °F 88% 30.20 in 8.0 mi ENE 6.9 mph - 0.00 in   Overcast
9:56 PM 24.1 °F 16.0 °F 19.0 °F 81% 30.21 in 10.0 mi NE 6.9 mph - N/A   Overcast
10:56 PM 24.1 °F 17.0 °F 19.9 °F 84% 30.19 in 10.0 mi East 5.8 mph - N/A   Overcast
11:56 PM 24.1 °F 18.2 °F 19.0 °F 81% 30.20 in 10.0 mi NE 4.6 mph - N/A   Overcast